Time,TemperatureF,DewpointF,PressureIn,WindDirection,WindDirectionDegrees,WindSpeedMPH,WindSpeedGustMPH,Humidity,HourlyPrecipIn,Conditions,Clouds,dailyrainin,SoftwareType,DateUTC
2013-04-13 00:14:00,39.2,38.0,29.76,ENE,77,9.0,18.0,95,0.00,,,0.00,weatherlink.com 1.10,2013-04-13 04:14:00,
2013-04-13 00:29:00,39.2,38.0,29.76,North,9,4.0,20.0,94,0.00,,,0.00,weatherlink.com 1.10,2013-04-13 04:29:00,
2013-04-13 00:44:00,39.0,38.0,29.76,NE,54,12.0,13.0,94,0.00,,,0.00,weatherlink.com 1.10,2013-04-13 04:44:00,
2013-04-13 00:59:00,38.9,37.0,29.76,SSW,192,9.0,14.0,94,0.00,,,0.00,weatherlink.com 1.10,2013-04-13 04:59:00,
2013-04-13 01:14:00,38.8,37.0,29.75,East,100,8.0,18.0,94,0.00,,,0.00,weatherlink.com 1.10,2013-04-13 05:14:00,
2013-04-13 01:29:00,38.8,37.0,29.75,ENE,63,2.0,19.0,94,0.00,,,0.00,weatherlink.com 1.10,2013-04-13 05:29:00,
2013-04-13 01:44:00,38.6,37.0,29.75,NNW,348,10.0,18.0,94,0.00,,,0.00,weatherlink.com 1.10,2013-04-13 05:44:00,
2013-04-13 01:59:00,38.7,37.0,29.75,NNE,17,5.0,14.0,94,0.00,,,0.00,weatherlink.com 1.10,2013-04-13 05:59:00,
2013-04-13 02:14:00,38.4,37.0,29.76,East,97,6.0,15.0,94,0.00,,,0.00,weatherlink.com 1.10,2013-04-13 06:14:00,
2013-04-13 02:29:00,38.3,37.0,29.77,NW,311,6.0,16.0,93,0.00,,,0.00,weatherlink.com 1.10,2013-04-13 06:29:00,
2013-04-13 02:44:00,38.3,37.0,29.77,South,175,8.0,14.0,93,0.00,,,0.00,weatherlink.com 1.10,2013-04-13 06:44:00,
2013-04-13 03:14:00,38.2,36.0,29.78,NNW,332,0.0,13.0,93,0.00,,,0.00,weatherlink.com 1.10,2013-04-13 07:14:00,
2013-04-13 03:29:00,37.8,36.0,29.74,NE,52,10.0,18.0,94,0.01,,,0.01,weatherlink.com 1.10,2013-04-13 07:29:00,
2013-04-13 03:44:00,37.8,36.0,29.72,North,355,3.0,15.0,94,0.01,,,0.01,weatherlink.com 1.10,2013-04-13 07:44:00,
2013-04-13 04:00:00,38.0,37.0,29.74,ENE,59,9.0,18.0,94,0.01,,,0.01,weatherlink.com 1.10,2013-04-13 08:00:00,
2013-04-13 04:15:00,38.2,36.0,29.75,NE,48,5.0,20.0,93,0.02,,,0.02,weatherlink.com 1.10,2013-04-13 08:15:00,
2013-04-13 04:30:00,38.2,36.0,29.73,SE,132,11.0,20.0,92,0.01,,,0.02,weatherlink.com 1.10,2013-04-13 08:30:00,
2013-04-13 04:45:00,38.0,36.0,29.74,East,82,5.0,18.0,92,0.01,,,0.02,weatherlink.com 1.10,2013-04-13 08:45:00,
2013-04-13 05:00:00,38.0,36.0,29.75,NNW,348,6.0,14.0,92,0.01,,,0.02,weatherlink.com 1.10,2013-04-13 09:00:00,
2013-04-13 05:15:00,38.1,36.0,29.75,NNW,342,7.0,14.0,91,0.00,,,0.02,weatherlink.com 1.10,2013-04-13 09:15:00,
2013-04-13 05:30:00,37.8,36.0,29.76,North,11,2.0,18.0,91,0.00,,,0.02,weatherlink.com 1.10,2013-04-13 09:30:00,
2013-04-13 06:00:00,37.0,35.0,29.76,NE,45,4.0,12.0,93,0.00,,,0.02,weatherlink.com 1.10,2013-04-13 10:00:00,
2013-04-13 06:30:00,36.6,35.0,29.78,NNE,15,1.0,11.0,94,0.00,,,0.02,weatherlink.com 1.10,2013-04-13 10:30:00,
2013-04-13 07:00:00,36.1,35.0,29.80,NE,45,1.0,9.0,94,0.00,,,0.02,weatherlink.com 1.10,2013-04-13 11:00:00,
2013-04-13 07:15:00,36.1,35.0,29.80,NW,319,2.0,9.0,94,0.00,,,0.02,weatherlink.com 1.10,2013-04-13 11:15:00,
2013-04-13 07:30:00,36.1,35.0,29.80,NNE,23,4.0,9.0,95,0.00,,,0.02,weatherlink.com 1.10,2013-04-13 11:30:00,
2013-04-13 07:45:00,36.4,35.0,29.80,WSW,255,4.0,8.0,94,0.00,,,0.02,weatherlink.com 1.10,2013-04-13 11:45:00,
2013-04-13 08:00:00,36.4,35.0,29.80,NNE,12,5.0,7.0,94,0.00,,,0.02,weatherlink.com 1.10,2013-04-13 12:00:00,
2013-04-13 08:15:00,36.7,35.0,29.81,NW,311,2.0,9.0,94,0.00,,,0.02,weatherlink.com 1.10,2013-04-13 12:15:00,
2013-04-13 08:30:00,37.0,35.0,29.81,North,11,4.0,8.0,93,0.00,,,0.02,weatherlink.com 1.10,2013-04-13 12:30:00,
2013-04-13 08:45:00,37.1,35.0,29.82,WNW,294,4.0,9.0,91,0.00,,,0.02,weatherlink.com 1.10,2013-04-13 12:45:00,
2013-04-13 09:00:00,37.1,35.0,29.82,NNW,333,2.0,8.0,90,0.00,,,0.02,weatherlink.com 1.10,2013-04-13 13:00:00,
2013-04-13 09:15:00,37.3,35.0,29.82,NNE,22,3.0,7.0,90,0.00,,,0.02,weatherlink.com 1.10,2013-04-13 13:15:00,
2013-04-13 09:30:00,37.8,35.0,29.82,NW,322,1.0,6.0,89,0.00,,,0.02,weatherlink.com 1.10,2013-04-13 13:30:00,
2013-04-13 09:45:00,37.6,35.0,29.83,NW,307,0.0,7.0,89,0.00,,,0.02,weatherlink.com 1.10,2013-04-13 13:45:00,
2013-04-13 10:00:00,38.1,35.0,29.83,North,11,0.0,5.0,88,0.00,,,0.02,weatherlink.com 1.10,2013-04-13 14:00:00,
2013-04-13 10:15:00,38.5,35.0,29.84,North,360,0.0,5.0,88,0.00,,,0.02,weatherlink.com 1.10,2013-04-13 14:15:00,
2013-04-13 10:30:00,38.8,35.0,29.83,North,5,2.0,5.0,87,0.00,,,0.02,weatherlink.com 1.10,2013-04-13 14:30:00,
2013-04-13 10:45:00,38.9,35.0,29.84,North,355,2.0,6.0,85,0.00,,,0.02,weatherlink.com 1.10,2013-04-13 14:45:00,
2013-04-13 11:00:00,39.7,36.0,29.84,NNE,20,0.0,6.0,86,0.00,,,0.02,weatherlink.com 1.10,2013-04-13 15:00:00,
2013-04-13 11:15:00,40.4,36.0,29.84,NW,321,0.0,4.0,85,0.00,,,0.02,weatherlink.com 1.10,2013-04-13 15:15:00,
2013-04-13 11:30:00,41.8,37.0,29.84,West,260,0.0,6.0,83,0.00,,,0.02,weatherlink.com 1.10,2013-04-13 15:30:00,
2013-04-13 11:46:00,42.4,37.0,29.84,WNW,282,2.0,5.0,80,0.00,,,0.02,weatherlink.com 1.10,2013-04-13 15:46:00,
2013-04-13 12:01:00,43.6,38.0,29.83,NE,51,1.0,6.0,79,0.00,,,0.02,weatherlink.com 1.10,2013-04-13 16:01:00,
2013-04-13 12:16:00,44.5,38.0,29.83,North,5,2.0,5.0,78,0.00,,,0.02,weatherlink.com 1.10,2013-04-13 16:16:00,
2013-04-13 12:31:00,44.5,37.0,29.82,West,262,0.0,4.0,76,0.00,,,0.02,weatherlink.com 1.10,2013-04-13 16:31:00,
2013-04-13 12:46:00,46.5,38.0,29.82,WNW,292,0.0,5.0,73,0.00,,,0.02,weatherlink.com 1.10,2013-04-13 16:46:00,
2013-04-13 14:01:00,46.6,40.0,29.80,ESE,102,6.0,7.0,77,0.00,,,0.02,weatherlink.com 1.10,2013-04-13 18:01:00,
2013-04-13 14:31:00,46.4,40.0,29.79,ESE,107,5.0,7.0,77,0.00,,,0.02,weatherlink.com 1.10,2013-04-13 18:31:00,
2013-04-13 15:01:00,45.9,39.0,29.80,ESE,105,5.0,8.0,78,0.00,,,0.02,weatherlink.com 1.10,2013-04-13 19:01:00,
2013-04-13 15:16:00,46.1,39.0,29.80,ESE,103,5.0,8.0,77,0.00,,,0.02,weatherlink.com 1.10,2013-04-13 19:16:00,
2013-04-13 15:31:00,45.8,39.0,29.79,ESE,110,6.0,7.0,76,0.00,,,0.02,weatherlink.com 1.10,2013-04-13 19:31:00,
2013-04-13 16:01:00,44.4,39.0,29.80,ENE,71,4.0,10.0,82,0.00,,,0.02,weatherlink.com 1.10,2013-04-13 20:01:00,
2013-04-13 16:31:00,44.5,39.0,29.80,ESE,113,4.0,8.0,82,0.00,,,0.02,weatherlink.com 1.10,2013-04-13 20:31:00,
2013-04-13 16:46:00,44.3,39.0,29.81,ESE,121,6.0,8.0,82,0.00,,,0.02,weatherlink.com 1.10,2013-04-13 20:46:00,
2013-04-13 17:01:00,43.2,38.0,29.82,ENE,61,3.0,9.0,83,0.00,,,0.02,weatherlink.com 1.10,2013-04-13 21:01:00,
2013-04-13 17:31:00,44.5,40.0,29.83,East,90,4.0,8.0,83,0.00,,,0.02,weatherlink.com 1.10,2013-04-13 21:31:00,
2013-04-13 18:16:00,45.1,40.0,29.84,East,84,6.0,8.0,81,0.00,,,0.02,weatherlink.com 1.10,2013-04-13 22:16:00,
2013-04-13 18:31:00,44.5,39.0,29.84,East,98,4.0,8.0,81,0.00,,,0.02,weatherlink.com 1.10,2013-04-13 22:31:00,
2013-04-13 18:46:00,44.2,39.0,29.85,East,99,1.0,6.0,82,0.00,,,0.02,weatherlink.com 1.10,2013-04-13 22:46:00,
2013-04-13 19:01:00,44.2,39.0,29.85,East,97,2.0,5.0,83,0.00,,,0.02,weatherlink.com 1.10,2013-04-13 23:01:00,
2013-04-13 19:16:00,44.5,40.0,29.85,ESE,110,2.0,6.0,85,0.00,,,0.02,weatherlink.com 1.10,2013-04-13 23:16:00,
2013-04-13 19:31:00,45.3,40.0,29.86,SE,136,5.0,8.0,82,0.00,,,0.02,weatherlink.com 1.10,2013-04-13 23:31:00,
2013-04-13 19:46:00,45.4,40.0,29.85,SE,127,6.0,9.0,81,0.00,,,0.02,weatherlink.com 1.10,2013-04-13 23:46:00,
2013-04-13 20:16:00,44.5,40.0,29.87,SE,139,1.0,2.0,83,0.00,,,0.02,weatherlink.com 1.10,2013-04-14 00:16:00,
2013-04-13 20:32:00,44.6,40.0,29.88,SE,139,0.0,1.0,84,0.00,,,0.02,weatherlink.com 1.10,2013-04-14 00:32:00,
2013-04-13 20:46:00,44.7,41.0,29.89,SE,139,0.0,2.0,85,0.00,,,0.02,weatherlink.com 1.10,2013-04-14 00:46:00,
2013-04-13 21:01:00,44.8,40.0,29.89,SE,139,1.0,4.0,83,0.00,,,0.02,weatherlink.com 1.10,2013-04-14 01:01:00,
2013-04-13 21:16:00,44.9,40.0,29.89,SSE,148,0.0,4.0,82,0.00,,,0.02,weatherlink.com 1.10,2013-04-14 01:16:00,
2013-04-13 21:31:00,44.8,40.0,29.89,SSE,148,1.0,2.0,83,0.00,,,0.02,weatherlink.com 1.10,2013-04-14 01:31:00,
2013-04-13 21:46:00,44.7,41.0,29.89,SSE,148,0.0,1.0,85,0.00,,,0.02,weatherlink.com 1.10,2013-04-14 01:46:00,
2013-04-13 22:16:00,44.5,41.0,29.90,SSE,148,0.0,2.0,86,0.00,,,0.02,weatherlink.com 1.10,2013-04-14 02:16:00,
2013-04-13 22:31:00,44.5,41.0,29.90,SSE,148,1.0,2.0,86,0.00,,,0.02,weatherlink.com 1.10,2013-04-14 02:31:00,
2013-04-13 22:46:00,44.6,41.0,29.90,SSE,148,1.0,2.0,87,0.00,,,0.02,weatherlink.com 1.10,2013-04-14 02:46:00,
2013-04-13 23:01:00,44.6,41.0,29.90,SSE,148,1.0,3.0,87,0.00,,,0.02,weatherlink.com 1.10,2013-04-14 03:01:00,
2013-04-13 23:16:00,44.7,40.0,29.90,SSE,159,2.0,3.0,84,0.00,,,0.02,weatherlink.com 1.10,2013-04-14 03:16:00,
2013-04-13 23:32:00,44.7,40.0,29.90,South,182,2.0,3.0,84,0.00,,,0.02,weatherlink.com 1.10,2013-04-14 03:32:00,
2013-04-13 23:46:00,44.9,40.0,29.90,SW,229,0.0,2.0,83,0.00,,,0.02,weatherlink.com 1.10,2013-04-14 03:46:00,